Location: Memphis
(29.8667°N, 31.2500°E)
Time: 08:04:12
(UTC+00:00)

NOSS 3-2 (A) - Pass Details

Date: 03 March 2021
Orbit: 780 x 1427 km, 63.4° (Epoch: 31 March)

Event Time Altitude Azimuth Distance (km) Brightness Sun altitude
Rises 18:18:33 0° 218° (SW) 3,256 6.6 -31.7°
Reaches altitude 10° 18:20:55 10° 222° (SW) 2,351 5.8 -32.2°
Enters shadow 18:24:44 44° 249° (WSW) 1,117 4.0 -33.0°
